Вернуться в каталог

COSMOS 886 DEB

АктивенUNKNOWN
NORAD 14800·DEBRIS·🇷🇺 Russia

Запущен Dec 27, 1976 с Baikonur Cosmodrome

Loading…

Ближайшие Пролёты (ближайшие 24 часа)

TLE

СвежийSource: Space-Track

Эпоха: Sep 14, 2026, 10:06 UTC

1 14800U 76126BS  26257.42149428  .00000053  00000-0  13804-2 0  9997
2 14800  65.7517 257.0150 0599175  59.3322  84.0147 11.50859546837068

Отслеживайте COSMOS 886 DEB в реальном времени с AllMySat

Download on the App Store